Location: Bowman Observatory
(41.0326°N, 73.6210°W)
Time: 09:40:58
(UTC-04:00)

Cosmos 2298 Rocket - Visible Passes

Search period start: 01 September 2014 00:00
Search period end: 11 September 2014 00:00
Orbit: 777 x 784 km, 74.0° (Epoch: 31 August)

Date Brightness Start Highest point End Pass type
(mag) Time Alt. Az. Time Alt. Az. Time Alt. Az.
01 Sep 6.7 01:53:24 11° ENE 01:53:24 11° ENE 01:53:55 10° ENE visible
01 Sep 4.3 03:33:56 60° NNW 03:33:56 60° NNW 03:38:24 10° NNE visible
01 Sep 6.2 05:15:44 10° WNW 05:16:26 10° NW 05:17:08 10° NW visible
02 Sep 5.0 03:01:32 44° NE 03:01:32 44° NE 03:05:09 10° NNE visible
02 Sep 5.8 04:42:05 15° WNW 04:42:47 16° NW 04:45:56 10° NNW visible
03 Sep 5.8 02:29:07 27° NE 02:29:07 27° NE 02:31:43 10° NNE visible
03 Sep 5.5 04:09:39 23° NW 04:09:39 23° NW 04:13:26 10° N visible
04 Sep 6.5 01:56:39 17° NE 01:56:39 17° NE 01:58:05 10° NE visible
04 Sep 5.3 03:37:12 30° NNW 03:37:12 30° NNW 03:40:37 10° N visible
05 Sep 5.5 03:04:43 31° N 03:04:43 31° N 03:07:36 10° N visible
06 Sep 6.0 02:32:13 26° NNE 02:32:13 26° NNE 02:34:26 10° NNE visible
06 Sep 6.2 04:12:45 12° NW 04:12:45 12° NW 04:14:19 10° NNW visible
07 Sep 6.4 01:59:41 19° NNE 01:59:41 19° NNE 02:01:07 10° NNE visible
07 Sep 6.1 03:40:13 16° NW 03:40:13 16° NW 03:42:17 10° NNW visible
08 Sep 6.8 01:27:08 12° NE 01:27:08 12° NE 01:27:37 10° NE visible
08 Sep 6.1 03:07:40 19° NNW 03:07:40 19° NNW 03:09:38 10° N visible
09 Sep 6.3 02:35:06 19° N 02:35:06 19° N 02:36:44 10° N visible
10 Sep 6.6 02:02:31 17° N 02:02:31 17° N 02:03:39 10° NNE visible
